QPF
0.00 0.00 0.00 0.00 0.00 0.00 0.00 0.00 0.00 0.00 0.00 0.00 0.00 0.00 0.01 0.01 0.01 0.01 0.00 0.03 0.03 0.02 0.01 0.00 0.00 0.00 0.00 0.01 0.01 0.01 0.01 0.01 0.01 0.01 0.02 0.03 0.01 0.00 0.00 0.00 0.00 0.00 0.00 0.00 0.00 0.01 0.00 0.00 0.00 0.00 0.00 0.00 0.00 0.00
0.00 0.00 0.00 0.00 0.00 0.00 0.00 0.00 0.00 0.00 0.00 0.00 0.00 0.00 0.01 0.00 0.00 0.00 0.00 0.00 0.01 0.02 0.01 0.00 0.00 0.00 0.00 0.00 0.00 0.01 0.02 0.01 0.02 0.02 0.02 0.01 0.00 0.00 0.00 0.00 0.00 0.00 0.00 0.00 0.00 0.00 0.00 0.00 0.00 0.00 0.00 0.00 0.00 0.00
0.00 0.00 0.00 0.00 0.00 0.00 0.00 0.00 0.00 0.00 0.00 0.00 0.00 0.00 0.00 0.00 0.00 0.00 0.00 0.00 0.00 0.02 0.01 0.00 0.00 0.00 0.00 0.00 0.00 0.00 0.01 0.01 0.00 0.00 0.01 0.00 0.00 0.00 0.00 0.00 0.00 0.00 0.00 0.00 0.00 0.00 0.00 0.00 0.00 0.00 0.00 0.00 0.00 0.00
0.00 0.00 0.00 0.00 0.00 0.00 0.00 0.00 0.00 0.00 0.00 0.00 0.00 0.00 0.00 0.02 0.00 0.00 0.00 0.00 0.00 0.01 0.01 0.00 0.00 0.00 0.00 0.00 0.00 0.00 0.00 0.00 0.00 0.00 0.00 0.00 0.00 0.00 0.00 0.00 0.00 0.00 0.00 0.00 0.00 0.00 0.00 0.00 0.00 0.00 0.00 0.00 0.00 0.00
0.00 0.00 0.00 0.00 0.00 0.00 0.00 0.00 0.00 0.00 0.00 0.00 0.00 0.00 0.00 0.04 0.00 0.00 0.00 0.00 0.00 0.01 0.02 0.00 0.00 0.00 0.00 0.00 0.00 0.00 0.00 0.00 0.00 0.00 0.00 0.00 0.00 0.00 0.00 0.00 0.00 0.00 0.00 0.00 0.00 0.00 0.00 0.00 0.00 0.00 0.00 0.00 0.00 0.00
0.00 0.00 0.00 0.00 0.00 0.00 0.00 0.00 0.00 0.00 0.00 0.00 0.00 0.00 0.01 0.04 0.00 0.00 0.01 0.00 0.00 0.00 0.02 0.01 0.00 0.00 0.00 0.00 0.00 0.00 0.00 0.00 0.00 0.00 0.00 0.00 0.00 0.00 0.00 0.00 0.00 0.00 0.00 0.00 0.00 0.00 0.00 0.00 0.00 0.00 0.00 0.00 0.00 0.00
0.00 0.00 0.00 0.00 0.00 0.00 0.00 0.00 0.00 0.00 0.00 0.01 0.00 0.00 0.00 0.00 0.00 0.00 0.00 0.00 0.00 0.00 0.01 0.01 0.00 0.00 0.00 0.00 0.00 0.00 0.00 0.00 0.00 0.00 0.00 0.00 0.00 0.00 0.00 0.00 0.00 0.00 0.00 0.00 0.00 0.00 0.00 0.00 0.00 0.00 0.00 0.00 0.00 0.00
0.00 0.00 0.00 0.00 0.00 0.00 0.00 0.00 0.00 0.00 0.01 0.02 0.01 0.00 0.00 0.00 0.00 0.00 0.00 0.00 0.00 0.00 0.00 0.00 0.00 0.00 0.00 0.00 0.00 0.00 0.00 0.00 0.00 0.00 0.00 0.00 0.00 0.00 0.00 0.00 0.00 0.00 0.00 0.00 0.00 0.00 0.00 0.00 0.00 0.00 0.00 0.00 0.00 0.00
0.00 0.00 0.00 0.00 0.00 0.00 0.00 0.00 0.00 0.01 0.04 0.03 0.01 0.00 0.00 0.00 0.00 0.00 0.00 0.00 0.00 0.00 0.00 0.00 0.00 0.00 0.00 0.00 0.01 0.00 0.00 0.00 0.00 0.00 0.00 0.00 0.00 0.00 0.00 0.00 0.00 0.00 0.00 0.00 0.00 0.00 0.00 0.00 0.00 0.00 0.00 0.00 0.00 0.00
0.00 0.00 0.00 0.00 0.00 0.00 0.00 0.00 0.00 0.01 0.02 0.00 0.00 0.00 0.00 0.00 0.00 0.00 0.00 0.00 0.00 0.00 0.00 0.00 0.00 0.00 0.00 0.00 0.00 0.00 0.00 0.00 0.00 0.00 0.00 0.00 0.00 0.00 0.00 0.00 0.00 0.00 0.00 0.00 0.00 0.00 0.00 0.00 0.00 0.00 0.00 0.00 0.00 0.00
0.00 0.00 0.00 0.00 0.00 0.00 0.00 0.00 0.00 0.00 0.00 0.00 0.00 0.00 0.00 0.00 0.00 0.00 0.00 0.00 0.00 0.00 0.00 0.00 0.00 0.00 0.00 0.00 0.00 0.00 0.00 0.00 0.00 0.00 0.00 0.00 0.00 0.00 0.00 0.00 0.00 0.00 0.00 0.00 0.00 0.00 0.00 0.00 0.00 0.00 0.00 0.00 0.00 0.00
0.00 0.00 0.00 0.00 0.00 0.00 0.00 0.00 0.00 0.00 0.00 0.00 0.00 0.00 0.00 0.00 0.00 0.00 0.00 0.00 0.00 0.00 0.00 0.00 0.00 0.00 0.00 0.00 0.00 0.00 0.00 0.00 0.00 0.00 0.00 0.00 0.00 0.00 0.00 0.00 0.00 0.00 0.00 0.00 0.00 0.00 0.00 0.00 0.00 0.00 0.00 0.00 0.00 0.00
0.00 0.00 0.00 0.00 0.00 0.00 0.00 0.00 0.00 0.00 0.00 0.00 0.00 0.00 0.00 0.00 0.00 0.00 0.00 0.00 0.00 0.00 0.00 0.00 0.00 0.00 0.00 0.00 0.00 0.00 0.00 0.00 0.00 0.00 0.00 0.00 0.00 0.00 0.00 0.00 0.00 0.00 0.00 0.00 0.00 0.00 0.00 0.00 0.00 0.00 0.00 0.00 0.00 0.00
0.00 0.00 0.00 0.00 0.00 0.00 0.00 0.00 0.00 0.00 0.00 0.00 0.00 0.00 0.00 0.00 0.00 0.00 0.00 0.00 0.00 0.00 0.00 0.00 0.00 0.00 0.00 0.00 0.00 0.00 0.00 0.00 0.00 0.00 0.00 0.00 0.00 0.00 0.00 0.00 0.00 0.00 0.00 0.00 0.00 0.00 0.00 0.00 0.00 0.00 0.00 0.00 0.00 0.00
0.00 0.00 0.00 0.00 0.00 0.00 0.00 0.00 0.00 0.00 0.00 0.00 0.00 0.00 0.00 0.00 0.00 0.00 0.00 0.00 0.00 0.00 0.00 0.00 0.00 0.00 0.00 0.00 0.00 0.00 0.00 0.00 0.00 0.00 0.00 0.00 0.00 0.00 0.00 0.00 0.00 0.00 0.00 0.00 0.00 0.00 0.00 0.00 0.00 0.00 0.00 0.00 0.00 0.00
0.00 0.00 0.00 0.00 0.00 0.00 0.00 0.00 0.00 0.00 0.00 0.00 0.00 0.00 0.00 0.00 0.00 0.00 0.00 0.00 0.00 0.00 0.00 0.00 0.00 0.00 0.00 0.00 0.00 0.00 0.00 0.00 0.00 0.00 0.00 0.00 0.00 0.00 0.00 0.00 0.00 0.00 0.00 0.00 0.00 0.00 0.00 0.00 0.00 0.00 0.00 0.00 0.00 0.00
0.00 0.00 0.00 0.00 0.00 0.00 0.00 0.00 0.00 0.00 0.00 0.00 0.00 0.00 0.00 0.00 0.00 0.00 0.00 0.00 0.00 0.00 0.00 0.00 0.00 0.00 0.00 0.00 0.00 0.00 0.00 0.00 0.00 0.00 0.00 0.00 0.00 0.00 0.00 0.00 0.00 0.00 0.00 0.00 0.00 0.00 0.00 0.00 0.00 0.00 0.00 0.00 0.00 0.00
0.00 0.00 0.00 0.00 0.00 0.00 0.00 0.00 0.00 0.00 0.00 0.00 0.00 0.00 0.00 0.00 0.00 0.00 0.00 0.00 0.00 0.00 0.00 0.00 0.00 0.00 0.00 0.00 0.00 0.00 0.00 0.00 0.00 0.00 0.00 0.00 0.00 0.00 0.00 0.00 0.00 0.00 0.00 0.00 0.00 0.00 0.00 0.00 0.00 0.00 0.00 0.00 0.00 0.00
0.00 0.00 0.00 0.00 0.00 0.00 0.00 0.00 0.00 0.00 0.00 0.00 0.00 0.00 0.00 0.00 0.00 0.00 0.00 0.00 0.00 0.00 0.00 0.00 0.00 0.00 0.00 0.00 0.00 0.00 0.00 0.00 0.00 0.00 0.00 0.00 0.00 0.00 0.00 0.00 0.00 0.00 0.00 0.00 0.00 0.00 0.00 0.00 0.00 0.00 0.00 0.00 0.00 0.00
0.00 0.00 0.00 0.00 0.00 0.00 0.00 0.00 0.00 0.00 0.00 0.00 0.00 0.00 0.00 0.00 0.00 0.00 0.00 0.00 0.00 0.00 0.00 0.00 0.00 0.00 0.00 0.00 0.00 0.00 0.00 0.00 0.00 0.00 0.00 0.00 0.00 0.00 0.00 0.00 0.00 0.00 0.00 0.00 0.00 0.00 0.00 0.00 0.00 0.00 0.00 0.00 0.00 0.00
0.00 0.00 0.00 0.00 0.00 0.00 0.00 0.00 0.00 0.00 0.00 0.00 0.00 0.00 0.00 0.00 0.00 0.00 0.00 0.00 0.00 0.00 0.00 0.00 0.00 0.00 0.00 0.00 0.00 0.00 0.00 0.00 0.00 0.00 0.00 0.00 0.00 0.00 0.00 0.00 0.00 0.00 0.00 0.00 0.00 0.00 0.00 0.00 0.00 0.00 0.00 0.00 0.00 0.00
0.00 0.00 0.00 0.00 0.00 0.00 0.00 0.00 0.00 0.00 0.00 0.00 0.00 0.00 0.00 0.00 0.00 0.00 0.00 0.00 0.00 0.00 0.00 0.00 0.00 0.00 0.00 0.00 0.00 0.00 0.00 0.00 0.00 0.00 0.00 0.00 0.00 0.00 0.00 0.00 0.00 0.00 0.00 0.00 0.00 0.00 0.00 0.00 0.00 0.00 0.00 0.00 0.00 0.00
0.00 0.00 0.00 0.00 0.00 0.00 0.00 0.00 0.00 0.00 0.00 0.00 0.00 0.00 0.00 0.00 0.00 0.00 0.00 0.00 0.00 0.00 0.00 0.00 0.00 0.00 0.00 0.00 0.00 0.00 0.00 0.00 0.00 0.00 0.00 0.00 0.00 0.00 0.00 0.00 0.00 0.00 0.00 0.00 0.00 0.00 0.00 0.00 0.00 0.00 0.00 0.00 0.00 0.00
0.00 0.00 0.00 0.00 0.00 0.00 0.00 0.00 0.00 0.00 0.00 0.00 0.00 0.00 0.00 0.00 0.00 0.00 0.00 0.00 0.00 0.00 0.00 0.00 0.00 0.00 0.00 0.00 0.00 0.00 0.00 0.00 0.00 0.00 0.00 0.00 0.00 0.00 0.00 0.00 0.00 0.00 0.00 0.00 0.00 0.00 0.00 0.00 0.00 0.00 0.00 0.00 0.00 0.00
0.00 0.00 0.00 0.00 0.00 0.00 0.00 0.00 0.00 0.00 0.00 0.00 0.00 0.00 0.00 0.00 0.00 0.00 0.00 0.00 0.00 0.00 0.00 0.00 0.00 0.00 0.00 0.00 0.00 0.00 0.00 0.00 0.00 0.00 0.00 0.00 0.00 0.00 0.00 0.00 0.00 0.00 0.00 0.00 0.00 0.00 0.00 0.00 0.00 0.00 0.00 0.00 0.00 0.00
0.00 0.00 0.00 0.00 0.00 0.00 0.00 0.00 0.00 0.00 0.00 0.00 0.00 0.00 0.00 0.00 0.00 0.00 0.00 0.00 0.00 0.00 0.00 0.00 0.00 0.00 0.00 0.00 0.00 0.00 0.00 0.00 0.00 0.00 0.00 0.00 0.00 0.00 0.00 0.00 0.00 0.00 0.00 0.00 0.00 0.00 0.00 0.00 0.00 0.00 0.00 0.00 0.00 0.00
0.00 0.00 0.00 0.00 0.00 0.00 0.00 0.00 0.00 0.00 0.00 0.00 0.00 0.00 0.00 0.00 0.00 0.00 0.00 0.00 0.00 0.00 0.00 0.00 0.00 0.00 0.00 0.00 0.00 0.00 0.00 0.00 0.00 0.00 0.00 0.00 0.00 0.00 0.00 0.00 0.00 0.00 0.00 0.00 0.00 0.00 0.00 0.00 0.00 0.00 0.00 0.00 0.00 0.00
0.00 0.00 0.00 0.00 0.00 0.00 0.00 0.00 0.00 0.00 0.00 0.00 0.00 0.00 0.00 0.00 0.00 0.00 0.00 0.00 0.00 0.00 0.00 0.00 0.00 0.00 0.00 0.00 0.00 0.00 0.00 0.00 0.00 0.00 0.00 0.00 0.00 0.00 0.00 0.00 0.00 0.00 0.00 0.00 0.00 0.00 0.00 0.00 0.00 0.00 0.00 0.00 0.00 0.00
0.00 0.00 0.00 0.00 0.00 0.00 0.00 0.00 0.00 0.00 0.00 0.00 0.00 0.00 0.00 0.00 0.00 0.00 0.00 0.00 0.00 0.00 0.00 0.00 0.00 0.00 0.00 0.00 0.00 0.00 0.00 0.00 0.00 0.00 0.00 0.00 0.00 0.00 0.00 0.00 0.00 0.00 0.00 0.00 0.00 0.00 0.00 0.00 0.00 0.00 0.00 0.00 0.00 0.00
0.00 0.00 0.00 0.00 0.00 0.00 0.00 0.00 0.00 0.00 0.00 0.00 0.00 0.00 0.00 0.00 0.00 0.00 0.00 0.00 0.00 0.00 0.00 0.00 0.00 0.00 0.00 0.00 0.00 0.00 0.00 0.00 0.00 0.00 0.00 0.00 0.00 0.00 0.00 0.00 0.00 0.00 0.00 0.00 0.00 0.00 0.00 0.00 0.00 0.00 0.00 0.00 0.00 0.00
0.00 0.00 0.00 0.00 0.00 0.00 0.00 0.00 0.00 0.00 0.00 0.00 0.00 0.00 0.00 0.00 0.00 0.00 0.00 0.00 0.00 0.00 0.00 0.00 0.00 0.00 0.00 0.00 0.00 0.00 0.00 0.00 0.00 0.00 0.00 0.00 0.00 0.00 0.00 0.00 0.00 0.00 0.00 0.00 0.00 0.00 0.00 0.00 0.00 0.00 0.00 0.00 0.00 0.00
0.00 0.00 0.00 0.00 0.00 0.00 0.00 0.00 0.00 0.00 0.00 0.00 0.00 0.00 0.00 0.00 0.00 0.00 0.00 0.00 0.00 0.00 0.00 0.00 0.00 0.00 0.00 0.00 0.00 0.00 0.00 0.00 0.00 0.00 0.00 0.00 0.00 0.00 0.00 0.00 0.00 0.00 0.00 0.00 0.00 0.00 0.00 0.00 0.00 0.00 0.00 0.00 0.00 0.00
0.00 0.00 0.00 0.00 0.00 0.00 0.00 0.00 0.00 0.00 0.00 0.00 0.00 0.00 0.00 0.00 0.00 0.00 0.00 0.00 0.00 0.00 0.00 0.00 0.00 0.00 0.00 0.00 0.00 0.00 0.00 0.00 0.00 0.00 0.00 0.00 0.00 0.00 0.00 0.00 0.00 0.00 0.00 0.00 0.00 0.00 0.00 0.00 0.00 0.00 0.00 0.00 0.00 0.00
MSLP
1025.78 1026.20 1026.37 1026.36 1026.52 1026.63 1026.62 1026.78 1026.78 1026.75 1026.70 1026.59 1026.52 1026.39 1026.15 1026.04 1025.89 1026.15 1025.89 1025.61 1026.12 1025.99 1026.02 1026.45 1026.86 1027.01 1026.86 1026.76 1026.70 1026.04 1025.79 1024.97 1025.33 1025.52 1025.15 1024.96 1025.42 1026.42 1028.30 1030.80 1031.56 1031.92 1032.55 1032.80 1032.89 1033.73 1036.08 1036.67 1036.58 1037.32 1038.23 1037.78 1037.86 1037.97
1025.98 1026.22 1026.41 1026.50 1026.64 1026.76 1026.83 1026.76 1026.72 1026.73 1026.61 1026.49 1026.31 1026.11 1026.12 1026.05 1025.92 1025.98 1026.11 1026.02 1026.35 1026.64 1027.37 1027.50 1027.91 1028.17 1028.40 1028.64 1028.24 1026.89 1026.23 1025.92 1025.74 1025.92 1025.85 1026.10 1026.85 1028.00 1029.95 1032.84 1034.02 1035.14 1035.81 1035.99 1036.65 1037.03 1037.61 1037.85 1038.04 1038.35 1038.38 1038.39 1038.27 1038.27
1026.17 1026.41 1026.53 1026.69 1026.84 1026.78 1026.82 1026.89 1026.85 1026.77 1026.60 1026.44 1026.20 1026.14 1026.11 1025.92 1025.91 1026.05 1026.63 1027.13 1026.92 1026.76 1027.34 1027.89 1028.45 1028.64 1028.68 1028.62 1028.52 1028.03 1026.39 1026.36 1026.62 1026.88 1026.99 1027.86 1029.51 1030.79 1032.42 1034.78 1035.90 1037.02 1037.28 1037.32 1037.85 1038.46 1038.60 1038.66 1038.89 1039.02 1038.94 1038.83 1038.72 1038.57
1026.38 1026.67 1026.90 1027.01 1026.85 1026.97 1027.02 1026.92 1026.78 1026.58 1026.47 1026.23 1026.02 1026.04 1025.99 1026.13 1026.20 1026.47 1027.49 1027.53 1027.15 1027.01 1027.01 1028.87 1028.80 1028.95 1029.11 1028.50 1027.94 1027.24 1027.29 1027.20 1027.41 1027.85 1028.82 1030.17 1031.79 1033.01 1035.07 1036.67 1037.64 1039.16 1038.77 1039.04 1039.36 1039.51 1039.60 1039.74 1039.93 1040.00 1039.77 1039.50 1039.37 1039.27
1026.85 1027.10 1027.03 1027.07 1027.28 1027.13 1026.94 1026.77 1026.70 1026.62 1026.42 1026.00 1026.01 1026.00 1025.99 1026.21 1026.63 1027.23 1027.76 1028.17 1027.99 1027.94 1027.40 1028.55 1028.93 1029.33 1029.23 1028.96 1028.47 1027.98 1027.80 1027.96 1028.58 1029.75 1031.24 1033.17 1034.23 1035.21 1036.59 1038.11 1040.14 1040.64 1040.89 1040.78 1040.75 1040.91 1040.82 1040.89 1040.91 1040.81 1040.79 1040.54 1040.25 1040.03
1027.08 1027.18 1027.52 1027.49 1027.18 1027.05 1026.95 1026.86 1026.76 1026.53 1026.15 1025.99 1026.12 1026.17 1026.09 1026.48 1026.69 1027.32 1027.60 1027.77 1028.23 1028.03 1027.73 1028.43 1029.67 1029.92 1029.63 1029.62 1029.56 1029.43 1029.41 1029.71 1030.35 1031.92 1033.77 1035.26 1035.96 1036.21 1037.84 1040.14 1041.70 1041.58 1041.43 1041.45 1041.52 1041.33 1041.33 1041.23 1041.20 1041.31 1041.33 1041.05 1040.71 1040.55
1027.68 1027.79 1027.57 1027.36 1027.33 1027.28 1027.15 1026.92 1026.71 1026.36 1026.25 1026.30 1026.58 1026.85 1027.04 1027.29 1027.64 1028.80 1030.23 1029.80 1028.20 1027.88 1028.07 1029.16 1029.85 1030.55 1030.40 1029.85 1030.22 1030.52 1030.99 1031.44 1032.12 1033.76 1035.67 1036.71 1037.25 1037.56 1039.73 1041.61 1042.32 1042.10 1041.79 1041.73 1041.50 1041.48 1041.70 1041.71 1041.90 1041.50 1041.41 1041.29 1040.81 1040.72
1027.73 1027.69 1027.70 1027.76 1027.67 1027.45 1027.15 1026.89 1026.62 1026.36 1026.29 1026.89 1027.24 1027.42 1027.75 1028.12 1028.74 1029.86 1030.36 1029.41 1028.25 1028.85 1029.99 1031.18 1031.75 1031.64 1031.89 1031.11 1030.96 1031.19 1031.79 1032.65 1033.93 1035.31 1036.70 1037.68 1038.59 1039.81 1042.07 1042.93 1042.85 1042.56 1042.11 1041.96 1041.91 1041.69 1041.77 1041.72 1041.56 1041.36 1041.16 1041.02 1040.81 1040.63
1028.09 1028.17 1028.18 1027.98 1027.81 1027.68 1027.23 1026.98 1026.73 1026.36 1026.57 1027.29 1027.41 1027.73 1028.45 1029.33 1030.10 1030.80 1030.16 1030.20 1030.23 1031.04 1032.70 1034.50 1034.80 1033.92 1033.57 1032.51 1031.84 1032.10 1032.40 1034.14 1035.43 1036.90 1037.90 1038.60 1040.83 1042.53 1043.58 1043.41 1043.25 1042.97 1042.72 1042.45 1042.01 1041.59 1041.53 1041.63 1041.52 1041.02 1040.72 1040.56 1040.56 1040.36
1028.69 1028.69 1028.79 1028.73 1028.32 1027.81 1027.45 1027.21 1026.98 1026.77 1027.07 1027.25 1027.67 1028.28 1030.15 1031.43 1030.90 1030.23 1030.92 1031.44 1032.52 1034.12 1035.51 1036.83 1036.87 1035.97 1035.40 1034.22 1033.44 1033.45 1034.01 1035.09 1036.70 1038.38 1038.83 1040.63 1043.01 1043.98 1043.97 1043.79 1043.59 1043.13 1042.65 1042.23 1042.17 1041.81 1041.58 1041.42 1041.23 1040.85 1040.49 1040.08 1039.85 1039.71
1029.54 1029.72 1029.53 1029.17 1028.55 1028.21 1027.79 1027.53 1027.26 1027.31 1027.44 1027.93 1029.11 1030.86 1032.04 1031.25 1031.40 1032.68 1034.43 1035.63 1036.70 1037.69 1038.45 1038.58 1038.24 1037.58 1036.57 1036.07 1035.33 1035.53 1035.92 1036.54 1037.85 1039.36 1039.92 1041.84 1043.86 1044.43 1044.15 1043.91 1043.33 1042.92 1042.50 1042.18 1041.96 1041.71 1041.45 1041.17 1040.89 1040.46 1040.08 1039.77 1039.50 1039.29
1030.19 1030.17 1030.04 1029.68 1029.16 1028.87 1028.38 1027.89 1027.88 1028.54 1029.29 1029.74 1030.45 1031.83 1032.70 1033.93 1034.89 1036.56 1038.61 1039.29 1039.82 1040.52 1040.35 1039.93 1039.33 1038.58 1037.82 1037.29 1037.08 1037.33 1037.74 1038.54 1039.98 1040.44 1041.40 1043.41 1044.98 1044.79 1044.34 1043.94 1043.24 1042.81 1042.43 1042.07 1041.79 1041.57 1041.25 1040.88 1040.53 1040.27 1039.92 1039.60 1039.28 1039.08
1030.72 1030.72 1030.74 1030.43 1029.91 1029.45 1029.31 1029.18 1029.21 1029.35 1029.58 1030.40 1032.16 1034.77 1036.49 1038.42 1039.40 1041.34 1042.35 1042.13 1042.08 1042.02 1041.70 1041.34 1040.54 1039.69 1039.06 1038.77 1038.97 1039.36 1039.97 1041.03 1041.04 1042.05 1043.80 1044.98 1045.20 1044.73 1044.32 1043.65 1043.16 1042.69 1042.32 1042.08 1041.82 1041.53 1041.22 1040.83 1040.50 1040.16 1039.85 1039.50 1039.19 1038.93
1031.50 1031.33 1031.12 1031.04 1030.67 1030.29 1030.10 1029.84 1029.66 1029.88 1030.84 1033.89 1036.70 1039.65 1040.89 1042.95 1043.86 1044.12 1044.15 1043.88 1043.58 1042.98 1042.62 1042.17 1041.56 1041.17 1040.99 1040.95 1041.21 1042.11 1042.59 1042.50 1043.12 1044.08 1045.06 1045.32 1045.16 1044.69 1044.16 1043.68 1043.23 1042.80 1042.45 1042.23 1041.97 1041.59 1041.31 1041.03 1040.67 1040.35 1039.95 1039.58 1039.22 1038.90
1032.21 1032.06 1031.79 1031.36 1031.08 1030.91 1030.68 1030.58 1030.75 1031.14 1034.44 1037.89 1039.83 1042.68 1044.12 1044.54 1044.65 1044.50 1044.28 1043.81 1043.42 1043.31 1043.11 1042.90 1042.58 1042.65 1043.07 1043.48 1043.77 1044.14 1044.37 1045.18 1045.43 1045.80 1045.60 1045.26 1044.87 1044.61 1044.16 1043.67 1043.29 1042.88 1042.49 1042.13 1041.84 1041.49 1041.21 1040.85 1040.53 1040.18 1039.85 1039.50 1039.18 1038.84
1032.94 1032.63 1032.34 1032.10 1031.73 1031.68 1031.83 1031.98 1032.41 1033.96 1037.75 1040.84 1043.30 1044.55 1044.90 1044.73 1044.81 1044.55 1044.23 1043.90 1043.56 1043.53 1043.27 1043.59 1043.98 1044.69 1045.55 1045.68 1045.96 1046.49 1046.62 1046.73 1046.41 1045.93 1045.37 1044.88 1044.67 1044.39 1044.02 1043.62 1043.17 1042.72 1042.27 1041.92 1041.55 1041.23 1040.91 1040.64 1040.38 1040.05 1039.64 1039.23 1038.82 1038.52
1032.93 1033.24 1033.12 1033.14 1033.09 1033.09 1033.00 1033.61 1035.40 1038.58 1041.76 1044.26 1045.66 1045.40 1045.48 1045.49 1045.30 1044.76 1044.29 1044.02 1043.45 1043.47 1044.06 1044.49 1046.08 1047.00 1046.91 1047.19 1047.60 1047.48 1047.46 1046.96 1046.06 1045.40 1044.85 1044.52 1044.42 1044.11 1043.72 1043.29 1042.86 1042.39 1042.07 1041.70 1041.35 1041.07 1040.80 1040.46 1040.11 1039.80 1039.33 1038.73 1038.31 1037.97
1033.69 1033.69 1033.66 1033.86 1034.06 1034.28 1034.86 1036.58 1039.15 1042.82 1045.12 1046.09 1046.05 1046.08 1045.93 1045.90 1045.55 1045.08 1044.63 1044.35 1044.06 1044.20 1044.91 1046.05 1046.53 1047.47 1048.12 1048.43 1047.94 1047.52 1046.83 1046.17 1045.60 1045.14 1044.70 1044.32 1044.08 1043.75 1043.33 1043.04 1042.55 1042.18 1041.81 1041.46 1041.17 1040.80 1040.42 1040.02 1039.65 1039.14 1038.70 1038.30 1037.90 1037.52
1034.96 1034.78 1034.48 1034.48 1034.89 1036.20 1038.50 1041.04 1042.39 1045.45 1047.03 1046.99 1046.95 1046.75 1046.69 1046.66 1046.23 1045.86 1045.33 1044.86 1044.74 1044.75 1045.59 1046.55 1048.01 1048.58 1048.53 1048.10 1047.67 1047.05 1046.54 1046.09 1045.54 1045.01 1044.43 1043.88 1043.56 1043.32 1043.00 1042.65 1042.30 1041.85 1041.53 1041.12 1040.70 1040.29 1039.85 1039.45 1039.09 1038.65 1038.27 1037.91 1037.47 1037.00
1035.61 1035.74 1036.03 1035.97 1035.80 1038.39 1041.88 1044.13 1044.21 1046.11 1047.80 1048.11 1048.01 1047.97 1047.74 1047.75 1047.58 1047.04 1046.54 1045.91 1045.64 1045.80 1047.45 1048.30 1048.94 1048.88 1048.47 1047.87 1047.36 1046.91 1046.48 1046.06 1045.69 1044.99 1044.39 1043.92 1043.52 1043.06 1042.74 1042.41 1041.98 1041.55 1041.09 1040.59 1040.17 1039.51 1039.31 1038.84 1038.51 1038.11 1037.77 1037.20 1036.61 1036.50
1036.64 1037.14 1036.95 1037.54 1039.65 1041.67 1045.02 1046.76 1047.52 1048.20 1048.43 1049.02 1049.37 1049.21 1049.20 1048.91 1048.89 1048.53 1048.18 1047.67 1047.56 1048.32 1049.09 1049.40 1049.16 1048.67 1048.10 1047.57 1047.22 1046.88 1046.53 1046.32 1045.98 1045.53 1044.77 1043.85 1043.29 1043.02 1042.61 1042.23 1041.82 1041.36 1040.95 1040.49 1040.01 1039.55 1039.24 1038.84 1038.42 1037.95 1037.41 1036.79 1036.28 1035.77
1038.79 1038.42 1039.50 1039.51 1042.06 1044.28 1046.96 1048.65 1049.11 1049.19 1049.31 1050.20 1050.46 1050.51 1050.99 1051.06 1050.89 1050.68 1049.99 1049.08 1049.32 1049.80 1049.79 1049.56 1049.20 1048.69 1048.03 1047.60 1047.27 1046.94 1046.68 1046.42 1046.03 1045.45 1044.88 1044.13 1043.65 1043.13 1042.60 1042.13 1041.72 1041.29 1040.89 1040.43 1039.91 1039.47 1039.09 1038.88 1038.43 1037.73 1037.36 1036.71 1036.01 1035.54
1039.52 1039.88 1041.65 1042.75 1044.62 1047.12 1050.03 1049.54 1049.99 1050.65 1050.99 1051.95 1051.54 1052.21 1052.73 1052.74 1052.04 1051.11 1050.85 1050.55 1050.31 1050.01 1049.78 1049.55 1049.17 1048.65 1048.12 1047.56 1047.16 1046.88 1046.66 1046.53 1046.19 1045.69 1045.09 1044.47 1043.87 1043.24 1042.63 1042.19 1041.77 1041.31 1040.74 1040.24 1039.84 1039.40 1038.95 1038.46 1038.31 1037.73 1037.21 1036.85 1036.20 1035.59
1041.56 1044.62 1045.90 1047.33 1048.31 1050.44 1050.66 1051.55 1051.62 1052.12 1052.51 1053.18 1053.64 1054.25 1054.34 1054.17 1053.05 1052.12 1051.75 1051.10 1050.67 1050.07 1049.78 1049.56 1049.20 1048.66 1048.13 1047.73 1047.39 1046.97 1046.67 1046.46 1046.16 1045.61 1045.10 1044.58 1043.84 1043.06 1042.63 1042.07 1041.48 1041.03 1040.52 1039.94 1039.52 1039.11 1038.68 1038.36 1037.98 1037.75 1037.37 1036.90 1036.40 1035.84
1044.63 1049.63 1050.00 1051.03 1051.26 1051.94 1052.75 1053.57 1053.99 1053.93 1055.14 1055.10 1055.13 1055.37 1055.18 1054.85 1054.21 1053.34 1052.33 1051.39 1050.67 1050.27 1049.96 1049.67 1049.38 1049.11 1048.66 1047.86 1047.28 1046.82 1046.47 1046.37 1046.26 1045.79 1044.76 1044.42 1043.71 1042.94 1042.39 1041.78 1041.10 1040.49 1039.93 1039.53 1039.16 1038.82 1038.32 1038.05 1037.88 1037.51 1037.15 1036.81 1036.32 1035.68
1050.05 1052.82 1052.94 1053.43 1053.80 1053.71 1054.52 1055.46 1055.88 1056.25 1056.16 1056.21 1056.28 1055.86 1055.53 1054.97 1054.31 1053.56 1052.23 1051.44 1050.83 1050.33 1050.05 1049.78 1049.45 1048.85 1048.24 1047.86 1047.28 1046.56 1046.08 1045.89 1045.81 1045.58 1044.30 1043.80 1043.61 1043.27 1042.51 1041.73 1040.78 1039.77 1039.33 1039.25 1038.96 1038.25 1037.89 1037.62 1037.33 1036.97 1036.63 1036.26 1035.89 1035.54
1053.66 1054.73 1054.52 1054.23 1054.60 1054.92 1055.71 1056.18 1056.49 1056.91 1057.33 1057.45 1056.99 1056.23 1055.71 1055.40 1054.33 1052.74 1051.52 1050.91 1050.68 1050.17 1049.90 1049.62 1049.38 1048.96 1048.31 1047.42 1046.74 1046.16 1045.70 1045.38 1045.22 1044.67 1043.83 1043.30 1042.73 1042.34 1042.04 1041.36 1040.41 1039.45 1038.91 1038.55 1038.01 1037.69 1037.27 1036.82 1036.54 1036.21 1035.95 1035.60 1035.45 1035.46
1055.44 1055.67 1055.82 1055.74 1055.57 1055.91 1057.01 1057.61 1058.00 1058.25 1058.06 1057.64 1057.13 1056.96 1056.29 1055.02 1053.69 1052.06 1051.23 1050.56 1050.33 1049.96 1049.45 1048.93 1048.50 1048.05 1047.53 1046.95 1046.35 1045.72 1045.00 1044.59 1044.17 1043.76 1042.98 1042.06 1041.25 1040.78 1040.47 1040.02 1039.50 1038.51 1037.73 1037.59 1037.29 1036.55 1036.15 1035.83 1035.51 1035.19 1035.19 1035.24 1035.04 1034.98
1056.43 1056.61 1056.49 1056.92 1056.97 1057.55 1058.54 1058.96 1059.03 1058.71 1058.54 1058.33 1058.16 1057.07 1055.92 1054.11 1052.60 1051.82 1051.03 1050.61 1050.26 1049.85 1049.13 1048.29 1047.46 1047.13 1046.64 1046.13 1045.61 1044.90 1044.31 1043.94 1043.80 1043.18 1042.38 1041.26 1040.14 1039.61 1039.30 1039.04 1038.57 1037.98 1037.42 1037.03 1036.10 1035.24 1034.81 1034.36 1033.85 1033.83 1034.50 1035.09 1034.81 1034.60
1057.38 1057.29 1057.39 1057.90 1058.69 1059.33 1059.35 1059.35 1059.19 1059.01 1058.65 1058.40 1058.15 1057.39 1056.06 1054.12 1052.22 1051.51 1051.17 1050.68 1050.22 1049.65 1048.96 1048.29 1047.52 1046.89 1046.12 1045.42 1044.55 1043.58 1043.15 1042.77 1042.66 1042.87 1042.26 1041.10 1040.18 1039.23 1038.68 1038.14 1037.50 1036.77 1036.46 1036.06 1035.42 1034.80 1034.23 1034.14 1034.04 1033.90 1034.19 1034.60 1034.45 1034.29
1057.99 1057.96 1058.31 1058.94 1059.47 1059.42 1059.57 1059.52 1059.37 1059.21 1058.89 1058.57 1058.30 1057.97 1056.53 1054.73 1052.81 1051.31 1050.92 1050.40 1049.98 1049.48 1048.79 1047.77 1046.94 1046.43 1045.82 1045.14 1044.57 1043.73 1042.42 1041.73 1041.74 1041.50 1041.43 1040.52 1039.53 1038.44 1037.61 1036.76 1036.03 1035.60 1035.23 1034.83 1034.40 1034.07 1033.77 1033.58 1033.61 1033.48 1033.50 1033.52 1033.38 1033.30
1058.95 1059.99 1059.90 1060.16 1060.07 1059.68 1059.69 1059.86 1059.62 1059.22 1058.62 1058.30 1057.90 1057.36 1056.34 1055.83 1054.27 1051.34 1049.99 1050.14 1049.80 1049.32 1048.52 1047.93 1047.14 1046.04 1045.43 1044.88 1044.28 1043.69 1042.55 1041.77 1040.97 1040.18 1039.49 1038.52 1037.63 1036.49 1035.40 1034.57 1034.50 1034.20 1033.96 1033.77 1033.48 1033.22 1033.01 1032.92 1032.78 1032.68 1032.58 1032.37 1032.14 1031.92
1060.21 1060.40 1060.55 1060.82 1060.48 1060.26 1060.12 1060.00 1059.48 1058.99 1058.19 1058.16 1057.34 1056.94 1056.52 1055.96 1054.29 1051.65 1049.82 1049.87 1049.63 1049.45 1048.71 1047.92 1047.00 1045.97 1045.15 1044.56 1043.85 1043.02 1042.01 1041.26 1040.38 1039.13 1038.26 1036.86 1035.91 1035.01 1034.50 1034.19 1033.87 1033.52 1033.30 1033.04 1032.67 1032.33 1032.08 1031.96 1031.83 1031.62 1031.39 1031.11 1030.77 1030.45
Thickness
5448 5440 5434 5429 5421 5413 5405 5396 5387 5378 5368 5359 5349 5338 5327 5316 5305 5291 5280 5268 5255 5249 5242 5233 5222 5214 5208 5205 5196 5198 5197 5199 5196 5185 5192 5211 5207 5198 5165 5138 5138 5146 5130 5149 5164 5168 5139 5109 5119 5120 5097 5109 5107 5105
5438 5431 5424 5417 5408 5400 5392 5383 5373 5364 5355 5345 5334 5323 5310 5298 5286 5275 5265 5254 5240 5228 5215 5208 5197 5188 5180 5173 5172 5180 5183 5188 5188 5186 5193 5197 5194 5182 5166 5124 5114 5120 5094 5102 5096 5098 5094 5097 5097 5096 5095 5096 5097 5094
5427 5419 5411 5404 5396 5388 5377 5367 5358 5350 5340 5327 5316 5304 5291 5280 5269 5259 5245 5232 5223 5215 5200 5192 5179 5170 5166 5162 5161 5163 5178 5176 5169 5167 5178 5171 5148 5149 5145 5111 5100 5095 5092 5099 5096 5089 5087 5091 5090 5089 5089 5087 5090 5089
5414 5406 5398 5390 5382 5372 5362 5354 5345 5334 5323 5311 5300 5287 5273 5262 5251 5238 5221 5212 5206 5200 5194 5166 5163 5157 5153 5154 5157 5162 5163 5163 5163 5161 5154 5142 5129 5127 5097 5087 5086 5072 5082 5078 5074 5076 5077 5077 5075 5074 5076 5080 5079 5079
5401 5391 5384 5375 5365 5357 5349 5339 5328 5316 5305 5296 5281 5268 5255 5241 5229 5215 5203 5191 5183 5180 5179 5161 5154 5146 5144 5143 5146 5149 5152 5154 5150 5139 5124 5111 5109 5101 5092 5077 5055 5057 5052 5055 5059 5058 5059 5061 5060 5061 5060 5063 5064 5066
5386 5378 5368 5359 5353 5343 5332 5321 5309 5298 5288 5276 5262 5250 5239 5224 5210 5198 5189 5181 5170 5165 5166 5158 5141 5133 5134 5133 5132 5133 5136 5135 5130 5118 5103 5090 5090 5095 5074 5052 5044 5047 5050 5048 5047 5052 5052 5053 5051 5047 5047 5049 5052 5053
5370 5361 5354 5347 5335 5324 5312 5302 5288 5278 5267 5257 5243 5229 5218 5207 5195 5175 5153 5153 5160 5158 5155 5142 5135 5125 5123 5129 5126 5123 5119 5116 5113 5097 5083 5077 5076 5079 5054 5036 5038 5042 5045 5043 5046 5045 5044 5039 5038 5038 5040 5042 5047 5046
5356 5348 5339 5326 5316 5305 5292 5281 5270 5259 5246 5233 5223 5211 5197 5184 5172 5157 5150 5149 5150 5142 5129 5114 5109 5113 5107 5114 5116 5116 5109 5103 5095 5083 5075 5068 5065 5055 5027 5026 5028 5032 5037 5038 5038 5037 5030 5030 5032 5036 5040 5041 5042 5042
5341 5329 5318 5308 5294 5281 5272 5263 5252 5242 5228 5213 5203 5192 5179 5165 5152 5142 5140 5134 5128 5120 5096 5080 5071 5085 5090 5101 5109 5106 5106 5086 5084 5067 5060 5063 5039 5014 5014 5018 5020 5023 5024 5026 5029 5032 5031 5033 5034 5035 5037 5037 5039 5038
5319 5307 5292 5279 5270 5263 5254 5245 5236 5224 5213 5202 5190 5178 5156 5143 5140 5139 5126 5117 5106 5090 5076 5060 5063 5065 5073 5082 5091 5094 5083 5080 5055 5051 5057 5034 5008 5008 5009 5012 5013 5015 5019 5021 5019 5023 5026 5027 5028 5030 5030 5033 5035 5037
5289 5276 5268 5260 5253 5244 5236 5229 5219 5209 5199 5188 5170 5150 5139 5137 5130 5114 5090 5078 5070 5048 5054 5050 5050 5048 5064 5062 5072 5069 5063 5065 5042 5041 5040 5021 4999 5001 5003 5003 5007 5012 5015 5017 5017 5018 5020 5019 5021 5026 5029 5033 5035 5035
5267 5257 5247 5239 5234 5225 5219 5213 5204 5193 5179 5168 5159 5141 5129 5113 5095 5073 5053 5054 5044 5032 5039 5036 5039 5046 5051 5056 5056 5053 5047 5042 5017 5036 5023 5002 4993 4992 4998 4998 5004 5009 5010 5012 5012 5013 5016 5018 5019 5020 5023 5026 5028 5029
5247 5237 5228 5220 5213 5208 5200 5194 5186 5179 5171 5160 5140 5110 5092 5072 5049 5029 5017 5015 5018 5028 5028 5027 5029 5039 5043 5046 5036 5035 5027 5018 5034 5010 4994 4984 4986 4991 4991 5000 5002 5003 5004 5005 5006 5007 5009 5011 5014 5015 5017 5019 5021 5023
5228 5219 5210 5202 5196 5190 5186 5181 5177 5171 5159 5128 5094 5059 5052 5026 5028 5024 5022 5020 5021 5022 5022 5023 5024 5025 5027 5017 5015 4997 5011 5014 4984 4974 4978 4980 4977 4984 4991 4994 4995 4996 4998 4997 4999 5001 5002 5003 5005 5007 5009 5011 5013 5015
5209 5200 5195 5191 5185 5179 5175 5172 5167 5160 5130 5090 5073 5041 5031 5038 5031 5025 5025 5026 5027 5023 5021 5018 5020 5020 5003 4993 5008 4993 4975 4973 4983 4970 4974 4982 4982 4985 4987 4989 4989 4990 4991 4990 4993 4993 4995 4997 4999 5001 5003 5004 5006 5009
5193 5187 5183 5178 5176 5171 5166 5161 5155 5140 5102 5071 5051 5033 5039 5031 5026 5025 5024 5023 5025 5021 5024 5019 5004 4983 4980 4983 4971 4969 4955 4966 4973 4974 4981 4984 4980 4981 4982 4985 4985 4987 4989 4989 4991 4992 4993 4993 4993 4994 4995 4997 5000 5003
5186 5178 5171 5167 5163 5159 5157 5151 5130 5095 5069 5048 5038 5041 5034 5026 5024 5025 5026 5025 5028 5026 5008 5004 4976 4973 4980 4960 4969 4973 4965 4974 4981 4985 4988 4985 4983 4982 4979 4982 4985 4987 4986 4987 4987 4988 4987 4988 4988 4988 4989 4994 4996 4997
5177 5172 5167 5161 5155 5149 5142 5123 5100 5068 5051 5039 5037 5033 5032 5028 5025 5026 5029 5027 5026 5024 5015 4991 4997 4980 4973 4966 4975 4979 4982 4986 4988 4987 4987 4986 4985 4983 4985 4984 4985 4985 4985 4986 4984 4984 4984 4986 4986 4989 4990 4991 4991 4992
5166 5162 5158 5154 5150 5137 5112 5093 5082 5046 5034 5039 5037 5034 5031 5028 5029 5028 5029 5030 5026 5024 5011 4993 4977 4974 4987 4988 4986 4987 4987 4986 4985 4986 4988 4988 4986 4985 4985 4985 4985 4985 4984 4983 4983 4985 4985 4986 4986 4987 4987 4987 4987 4989
5160 5154 5150 5147 5143 5119 5091 5070 5074 5054 5030 5032 5032 5025 5029 5027 5024 5024 5025 5028 5025 5010 4997 4991 4992 4989 4987 4988 4989 4988 4988 4988 4985 4987 4988 4988 4988 4988 4986 4985 4985 4985 4986 4987 4986 4991 4986 4987 4986 4986 4985 4987 4989 4985
5155 5147 5144 5137 5119 5103 5073 5056 5048 5040 5038 5027 5023 5027 5022 5021 5015 5016 5017 5019 5011 5001 5000 4995 4993 4993 4993 4993 4992 4991 4989 4987 4985 4984 4985 4989 4991 4988 4987 4987 4986 4986 4984 4985 4986 4985 4985 4984 4983 4983 4983 4984 4985 4985
5143 5137 5129 5125 5109 5090 5065 5050 5043 5042 5035 5025 5022 5023 5005 4999 4997 5000 5007 5007 5007 5003 4998 4996 4995 4995 4996 4995 4994 4993 4992 4990 4989 4989 4989 4991 4988 4988 4988 4988 4987 4986 4984 4984 4985 4984 4983 4980 4979 4981 4979 4980 4982 4981
5137 5131 5120 5113 5096 5074 5044 5051 5041 5034 5025 5020 5023 5015 5007 5005 5008 5017 5011 5013 5012 5008 5005 5003 5002 5003 5003 5003 5002 5000 4997 4994 4992 4992 4992 4992 4992 4993 4993 4991 4989 4987 4986 4986 4985 4984 4982 4982 4978 4978 4978 4975 4976 4976
5131 5108 5092 5080 5075 5049 5051 5045 5046 5040 5027 5024 5014 5009 5005 4999 5012 5011 5016 5022 5016 5015 5013 5011 5010 5010 5010 5009 5007 5006 5005 5001 4999 4999 4998 4997 4998 4999 4998 4997 4995 4993 4992 4992 4990 4988 4986 4984 4982 4978 4976 4974 4972 4972
5115 5077 5075 5059 5058 5056 5046 5038 5033 5035 5019 5020 5014 5009 5010 5008 5009 5006 5023 5025 5026 5024 5024 5022 5020 5018 5016 5017 5018 5016 5015 5009 5005 5004 5007 5004 5005 5007 5005 5004 5003 5002 5001 4998 4995 4993 4991 4987 4983 4981 4978 4975 4973 4973
5070 5054 5054 5048 5049 5051 5048 5033 5028 5021 5026 5019 5021 5025 5021 5021 5013 5019 5033 5035 5036 5038 5035 5033 5032 5032 5033 5031 5030 5031 5029 5025 5019 5016 5021 5019 5015 5010 5008 5008 5008 5010 5007 5003 5000 4999 4997 4993 4990 4987 4984 4982 4982 4980
5064 5051 5062 5069 5065 5066 5057 5052 5049 5043 5023 5025 5032 5034 5028 5017 5025 5047 5052 5051 5049 5051 5048 5047 5044 5043 5044 5047 5047 5047 5045 5042 5038 5037 5037 5035 5032 5028 5023 5020 5020 5020 5017 5013 5011 5007 5003 5001 4999 4997 4994 4992 4988 4981
5068 5068 5064 5066 5068 5069 5054 5051 5048 5041 5048 5052 5055 5042 5039 5052 5061 5069 5067 5068 5066 5065 5065 5064 5063 5062 5062 5061 5061 5059 5058 5057 5054 5051 5049 5049 5049 5045 5042 5038 5035 5033 5032 5027 5023 5020 5015 5011 5008 5006 5004 5001 4997 4990
5077 5078 5081 5073 5073 5071 5059 5059 5060 5059 5058 5056 5051 5058 5062 5074 5078 5078 5080 5079 5078 5076 5078 5080 5082 5080 5078 5077 5077 5076 5074 5071 5066 5064 5065 5067 5067 5063 5057 5052 5049 5047 5044 5041 5039 5037 5034 5030 5028 5020 5011 5004 5001 4998
5083 5087 5088 5078 5079 5079 5073 5066 5065 5065 5067 5066 5065 5066 5073 5082 5092 5093 5091 5091 5091 5091 5091 5091 5093 5093 5094 5095 5096 5097 5093 5089 5085 5078 5076 5078 5077 5075 5072 5069 5067 5065 5061 5057 5054 5051 5046 5040 5035 5028 5020 5014 5008 5005
5099 5100 5098 5096 5091 5085 5080 5077 5075 5076 5075 5073 5072 5070 5081 5088 5100 5108 5107 5106 5105 5104 5106 5111 5110 5109 5109 5109 5107 5107 5109 5109 5103 5098 5093 5093 5093 5093 5093 5092 5090 5085 5080 5075 5069 5064 5058 5053 5046 5041 5036 5031 5026 5023
5108 5094 5099 5108 5103 5095 5090 5088 5089 5088 5090 5089 5092 5083 5090 5092 5099 5120 5125 5121 5119 5121 5122 5120 5121 5124 5122 5120 5119 5118 5118 5119 5119 5118 5119 5119 5119 5119 5118 5115 5108 5101 5096 5091 5085 5079 5073 5067 5061 5056 5052 5048 5044 5039
5105 5105 5103 5106 5110 5109 5104 5101 5104 5105 5104 5105 5106 5104 5102 5104 5112 5130 5139 5136 5133 5131 5131 5131 5132 5134 5134 5134 5134 5134 5134 5133 5131 5131 5132 5135 5133 5132 5129 5125 5121 5116 5111 5105 5101 5096 5090 5084 5077 5072 5068 5064 5061 5057